Погода в Явне

Израиль     31°52′30″N   34°44′03″E
темп.,
°C
ветер,
м/с
пор.,
м/с
влажн.,
%
обл.,
%
осадки,
мм/ч
давл.,
гПа
погр.,
м
26 января, вт
вт2623:00+14в23580 0.0 1023180
02:00+13в22610 0.0 102286
05:00+13всв236424 0.0 1021122
08:00+14ссв346545 0.0 1022222
11:00+17ссв334699 0.0 1021431
14:00+19ссв233699 0.0 1018605
17:00+18ссв2245100 0.0 101877
20:00+16св2342100 0.0 101791
27 января, ср
ср2723:00+16ююв123880 0.0 101654
02:00+15ююз224390 0.0 101481
05:00+15ю1244100 0.0 101273
08:00+16ю2248100 0.0 1012115
11:00+19юз4541100 0.0 1012536
14:00+19юз5743100 0.0 1011699
17:00+17зюз565696 0.0 1011392
20:00+16юв335697 0.0 1012142
28 января, чт
чт2823:00+15зюз225211 0.0 101395
02:00+15сз68816 0.7 1013572
05:00+15зсз796932 1.2 1014887
08:00+15зсз576142 1.3 10161094
11:00+17з785132 0.1 10171676
14:00+16зюз785719 0.1 10161514
17:00+15зюз79646 0.6 1016959
20:00+14юз46593 0.9 1017987
29 января, пт
пт2923:00+14зюз466584 0.6 1017713
02:00+14юз687185 3.4 1016904
05:00+13юз9126143 0.6 10151208
08:00+13ююз10146572 0.9 10161183
11:00+13зсз81073100 4.8 10171159
14:00+14зсз10125975 7.1 10171592
17:00+14зсз9115846 0.4 10181329
20:00+14зсз795654 0.8 10201154
30 января, сб
сб3023:00+14з685724 0.1 10201051
02:00+14зюз466361 0.1 1020695
05:00+13юз577468 1.8 1019656
08:00+13ююз697675 3.1 1021584
11:00+13ю697578 1.1 1021655
14:00+15юз897083 2.1 10201043
17:00+15ююз68629 0.0 1019645
20:00+14ююв46604 0.0 1021390